Temp
75 75 70 75 74 71 70 67 65 67 69 67 66 65 67 69 71 69 67 76 77 79 80 84 84 84 83 81 80 79 78 78 79 79 78 79 81 80 82 84 82 81 82 82
74 70 77 75 74 71 72 68 65 66 69 69 66 66 68 65 71 72 67 71 76 78 80 81 82 83 82 81 80 78 78 78 79 81 80 82 82 83 85 84 82 83 83 82
71 74 75 75 73 71 73 69 65 66 67 69 66 63 64 68 69 71 68 70 77 77 78 79 80 82 83 82 80 79 79 79 79 80 80 80 81 81 81 82 84 84 83 83
73 76 73 73 73 74 70 73 71 67 66 63 67 60 62 67 67 68 73 70 76 77 79 81 81 82 83 83 84 82 80 79 80 79 79 79 83 81 84 84 85 85 83 83
73 72 71 71 74 75 70 73 71 69 67 65 63 62 65 65 64 68 71 74 77 80 81 81 82 83 84 85 85 84 81 80 80 79 80 80 81 84 85 84 82 82 82 82
75 79 78 78 73 77 75 71 69 68 65 62 61 63 67 66 68 71 73 75 76 79 81 83 84 84 84 86 85 85 80 79 80 80 80 79 80 81 82 82 84 84 85 84
72 75 78 79 72 74 73 71 62 59 59 59 62 62 69 72 73 73 74 76 78 79 80 81 81 82 82 83 84 84 81 78 79 80 80 80 80 80 80 82 84 83 85 85
68 64 75 79 77 73 71 71 65 52 55 61 61 60 70 73 76 75 73 76 78 80 80 81 82 82 82 82 83 82 81 79 80 80 80 80 80 83 84 84 85 86 86 87
67 67 76 77 78 78 69 66 72 63 59 60 63 66 73 73 73 75 75 75 76 78 80 81 82 84 82 82 82 82 81 80 80 81 80 80 80 80 83 82 83 85 84 86
72 66 73 74 78 75 75 73 66 67 54 53 60 59 66 69 71 74 76 76 75 77 79 81 81 81 83 84 84 83 83 80 82 83 82 83 82 82 82 83 82 82 84 84
74 71 70 74 71 71 69 69 64 67 63 59 56 64 73 72 72 72 74 75 75 75 77 79 81 81 81 83 83 84 83 82 82 83 83 82 83 83 83 83 83 83 83 83
72 74 68 68 73 72 72 69 71 66 56 59 62 66 74 72 73 72 73 75 76 73 76 79 80 82 80 80 80 82 83 83 83 82 82 82 82 82 83 83 83 84 82 83
73 68 63 64 72 72 70 67 68 67 68 59 61 67 70 71 72 73 74 75 74 73 74 77 79 76 76 76 79 81 82 82 85 83 83 82 82 82 82 83 82 83 82 83
74 68 68 64 66 69 66 66 67 70 65 64 66 69 72 71 71 71 72 73 74 74 73 75 77 72 72 73 73 75 81 76 84 83 81 81 81 81 82 83 82 82 82 82
76 67 66 66 67 68 68 68 67 67 68 65 70 66 76 73 74 72 72 72 73 73 74 74 75 76 71 71 73 75 78 78 81 76 80 79 80 81 81 81 81 82 82 82
69 62 65 64 66 67 66 69 69 68 66 67 67 67 73 71 68 69 71 72 73 74 75 75 74 75 75 75 76 77 78 79 80 80 78 78 79 80 79 80 80 80 81 81
69 64 63 60 63 65 61 68 69 69 69 69 65 72 69 70 68 69 69 71 71 73 75 75 75 75 74 75 76 76 76 78 77 79 81 81 79 78 78 80 80 79 79 81
64 63 64 61 61 52 67 69 71 69 68 70 69 70 69 69 70 71 72 72 72 73 74 75 75 75 75 75 75 76 76 75 75 75 78 80 79 78 78 78 78 79 80 79
68 65 57 58 59 60 65 67 68 67 68 71 70 69 71 71 72 72 72 73 74 74 74 74 73 73 73 73 75 73 74 75 74 75 76 78 77 77 78 77 77 79 79 79
65 66 68 56 55 52 67 73 75 74 62 74 73 72 72 71 70 74 74 74 73 73 73 73 73 73 72 74 75 70 70 71 73 74 74 76 76 76 75 76 77 78 79 79
61 61 62 59 59 63 70 73 76 59 65 76 76 75 71 73 75 72 73 74 74 73 72 72 73 72 71 72 71 68 68 69 72 73 71 72 72 74 76 75 74 74 73 70
60 58 60 57 57 54 72 70 67 74 73 77 76 76 73 74 70 71 72 73 73 72 72 73 72 72 74 72 70 68 67 72 73 72 69 68 69 71 72 71 70 69 67 65
60 67 64 65 66 69 74 77 78 78 78 75 76 77 75 73 73 73 73 72 72 72 72 72 71 71 72 73 70 67 70 71 72 70 67 66 66 68 70 68 66 66 64 63
63 63 67 63 69 69 71 74 76 76 80 80 79 76 75 75 75 74 72 71 70 71 71 71 69 67 69 71 68 69 72 71 69 67 66 66 66 63 64 64 66 65 64 63
64 63 63 66 66 68 71 75 78 75 76 76 77 77 77 76 73 72 71 71 70 69 70 70 69 68 69 68 66 68 69 68 66 64 62 62 62 58 52 49 48 57 55 60
64 64 65 68 72 74 75 76 76 74 75 77 76 73 72 72 72 70 70 70 69 68 68 68 68 67 68 66 66 65 66 64 62 61 61 60 58 57 56 56 53 47 47 47
MSLP
1009.66 1009.28 1008.97 1008.81 1009.25 1009.59 1009.87 1010.43 1010.82 1011.33 1011.97 1012.36 1012.60 1012.89 1013.16 1013.56 1013.92 1014.02 1014.28 1013.86 1013.84 1013.69 1014.09 1014.19 1014.71 1015.23 1015.74 1016.40 1016.80 1017.29 1018.01 1018.46 1018.74 1018.79 1018.97 1019.05 1018.81 1019.09 1019.25 1019.27 1019.51 1019.66 1019.78 1019.93
1009.40 1008.92 1008.82 1009.11 1009.18 1009.39 1009.51 1009.90 1010.48 1011.27 1011.79 1012.06 1012.36 1012.37 1012.77 1013.51 1013.27 1013.44 1013.80 1013.93 1013.65 1013.66 1013.83 1014.07 1014.43 1014.94 1015.41 1015.96 1016.51 1017.05 1017.61 1018.26 1018.69 1018.79 1018.72 1018.64 1018.71 1018.81 1018.93 1019.04 1019.34 1019.51 1019.70 1019.91
1008.68 1008.65 1008.69 1008.72 1008.72 1008.84 1008.98 1009.49 1010.15 1010.58 1011.40 1011.78 1011.92 1011.90 1012.45 1012.94 1013.20 1013.48 1013.60 1013.38 1013.31 1013.38 1013.46 1013.73 1014.11 1014.43 1014.98 1015.44 1016.02 1016.60 1017.27 1017.82 1018.43 1018.67 1018.75 1018.60 1018.57 1018.79 1018.98 1019.07 1019.16 1019.30 1019.55 1019.80
1008.65 1008.35 1008.45 1008.32 1008.16 1008.51 1008.43 1009.23 1009.74 1010.25 1010.74 1010.84 1011.46 1011.22 1011.76 1012.17 1012.48 1013.02 1012.98 1012.98 1012.72 1012.81 1013.01 1013.22 1013.58 1013.96 1014.32 1014.74 1015.46 1016.19 1016.92 1017.54 1018.14 1018.52 1018.59 1018.34 1017.98 1018.25 1018.46 1018.70 1018.91 1018.95 1019.36 1019.60
1007.78 1007.76 1007.96 1007.87 1007.85 1008.44 1008.76 1009.24 1009.48 1009.94 1010.27 1010.64 1010.96 1010.97 1011.04 1011.68 1011.64 1011.73 1012.11 1011.90 1012.12 1012.21 1012.24 1012.48 1012.91 1013.30 1013.79 1014.40 1014.90 1015.68 1016.50 1017.21 1017.70 1018.24 1018.34 1018.30 1018.13 1018.19 1018.51 1018.68 1018.85 1019.09 1019.26 1019.47
1007.62 1007.60 1007.52 1007.35 1008.06 1008.15 1008.90 1009.21 1009.50 1009.89 1010.21 1009.74 1010.73 1010.65 1009.64 1010.27 1010.35 1010.38 1011.11 1011.30 1011.43 1011.74 1011.92 1012.01 1012.53 1013.01 1013.50 1014.04 1014.52 1015.22 1016.07 1016.64 1017.29 1017.79 1018.17 1018.28 1018.22 1018.28 1018.34 1018.57 1018.63 1018.89 1019.12 1019.27
1007.11 1006.91 1007.00 1007.23 1007.83 1008.71 1008.57 1008.46 1008.86 1009.29 1009.59 1009.69 1010.58 1010.28 1009.02 1009.40 1009.86 1010.10 1010.22 1010.45 1010.66 1011.19 1011.46 1011.64 1012.09 1012.59 1013.10 1013.62 1014.09 1014.66 1015.56 1016.16 1016.77 1017.26 1017.76 1018.03 1018.23 1018.31 1018.21 1018.33 1018.47 1018.69 1018.77 1018.94
1006.65 1006.96 1006.79 1006.93 1007.06 1007.49 1008.37 1008.45 1008.23 1008.67 1009.33 1009.72 1010.44 1009.52 1008.82 1009.32 1009.53 1009.86 1010.09 1009.91 1010.03 1010.17 1010.62 1011.07 1011.36 1011.96 1012.66 1013.19 1013.80 1014.27 1014.89 1015.55 1016.24 1016.71 1017.22 1017.66 1017.98 1018.05 1018.08 1018.13 1018.30 1018.45 1018.47 1018.51
1006.54 1006.52 1006.88 1006.88 1007.07 1007.48 1008.55 1008.77 1008.83 1008.97 1010.12 1009.70 1009.53 1009.21 1008.73 1009.04 1009.22 1009.26 1009.44 1009.53 1009.52 1009.89 1010.37 1010.77 1011.26 1011.59 1012.03 1012.74 1013.17 1013.68 1014.24 1014.95 1015.60 1016.10 1016.77 1017.29 1017.61 1017.92 1017.84 1018.10 1018.25 1018.32 1018.44 1018.43
1006.60 1006.65 1006.95 1007.30 1007.26 1007.99 1007.88 1008.63 1008.89 1008.79 1008.98 1008.94 1009.02 1008.91 1008.34 1008.51 1008.72 1008.98 1008.98 1009.32 1009.81 1010.07 1010.34 1010.57 1011.07 1011.47 1011.86 1012.36 1012.93 1013.45 1013.93 1014.43 1014.81 1015.55 1016.13 1016.64 1017.03 1017.34 1017.61 1017.82 1018.00 1018.07 1018.16 1018.29
1006.76 1006.58 1007.13 1007.29 1007.43 1007.67 1008.49 1008.42 1009.04 1009.02 1009.18 1008.62 1008.55 1008.23 1008.26 1008.48 1008.95 1009.12 1009.34 1009.64 1009.99 1010.28 1010.44 1010.58 1010.89 1011.52 1011.79 1012.35 1012.81 1013.16 1013.59 1014.13 1014.60 1015.12 1015.58 1016.05 1016.51 1016.89 1017.23 1017.40 1017.60 1017.85 1017.96 1018.03
1006.93 1006.73 1006.85 1007.50 1007.92 1008.18 1008.04 1008.09 1008.15 1007.97 1009.13 1009.29 1008.72 1008.06 1008.23 1008.74 1009.16 1009.57 1009.71 1009.93 1010.28 1010.65 1010.58 1010.43 1010.75 1011.09 1011.64 1012.10 1012.52 1012.77 1013.01 1013.36 1013.68 1014.38 1015.09 1015.46 1015.96 1016.41 1016.71 1016.94 1017.16 1017.37 1017.65 1017.66
1006.57 1007.12 1007.19 1007.64 1007.85 1008.08 1007.97 1008.38 1008.50 1008.46 1008.45 1008.47 1008.06 1007.78 1008.43 1008.94 1009.28 1009.69 1009.97 1010.25 1010.59 1010.64 1010.60 1010.41 1010.63 1011.23 1011.60 1011.96 1012.18 1012.46 1012.84 1012.84 1012.91 1013.64 1014.18 1014.74 1015.18 1015.71 1016.03 1016.25 1016.62 1016.92 1017.16 1017.32
1006.36 1007.17 1007.00 1007.19 1007.52 1007.91 1008.00 1008.35 1008.51 1008.04 1007.78 1007.84 1007.64 1007.55 1007.99 1008.69 1009.31 1009.95 1010.24 1010.57 1010.71 1010.75 1010.76 1010.56 1010.75 1011.58 1011.83 1012.00 1012.24 1012.49 1012.51 1013.01 1013.06 1013.35 1013.61 1013.84 1014.16 1014.67 1015.09 1015.48 1016.01 1016.31 1016.60 1016.80
1006.80 1007.14 1007.83 1008.07 1008.25 1008.21 1008.13 1008.16 1008.32 1008.04 1007.97 1007.74 1007.33 1007.80 1007.57 1008.55 1009.22 1010.02 1010.49 1010.78 1010.93 1010.93 1010.90 1011.02 1010.99 1011.28 1011.67 1011.88 1012.12 1012.22 1012.39 1012.59 1012.81 1013.03 1013.06 1012.99 1013.22 1013.71 1014.35 1014.76 1015.15 1015.66 1015.98 1016.16
1007.55 1008.10 1008.39 1008.57 1008.73 1008.69 1008.38 1008.22 1008.09 1008.17 1008.23 1008.18 1008.07 1007.94 1008.34 1009.22 1009.94 1010.28 1010.59 1010.77 1010.87 1010.87 1010.87 1011.13 1011.28 1011.53 1011.77 1011.79 1011.84 1011.96 1012.01 1012.02 1012.13 1012.31 1012.34 1012.67 1013.11 1013.27 1013.61 1013.94 1014.23 1014.93 1015.40 1015.59
1007.56 1008.17 1008.68 1008.74 1009.06 1008.95 1008.57 1007.99 1008.01 1007.95 1008.14 1008.01 1007.86 1007.95 1008.69 1009.33 1009.92 1010.26 1010.60 1010.78 1010.86 1010.89 1010.95 1011.15 1011.37 1011.61 1011.89 1011.84 1011.75 1011.59 1011.53 1011.62 1011.68 1011.68 1011.58 1011.74 1012.39 1012.75 1013.10 1013.37 1013.86 1014.05 1014.55 1014.88
1007.60 1008.29 1008.82 1008.93 1009.35 1008.92 1008.05 1008.40 1008.19 1008.07 1008.06 1008.22 1008.26 1008.49 1009.01 1009.27 1009.82 1010.22 1010.50 1010.59 1010.80 1011.04 1011.10 1011.17 1011.37 1011.59 1011.74 1011.91 1011.88 1011.73 1011.51 1011.49 1011.40 1011.29 1011.13 1011.18 1011.46 1011.87 1012.34 1012.88 1013.19 1013.36 1013.81 1014.19
1007.49 1008.00 1008.90 1008.98 1008.78 1008.91 1008.20 1008.03 1007.92 1007.70 1007.70 1008.01 1008.23 1008.57 1008.89 1009.27 1009.54 1009.86 1010.47 1010.73 1010.87 1011.18 1011.32 1011.50 1011.60 1011.61 1011.68 1011.83 1011.72 1011.60 1011.36 1011.27 1011.13 1010.91 1010.69 1010.63 1011.03 1011.43 1011.72 1012.02 1012.38 1012.74 1013.00 1013.47
1008.05 1007.83 1007.76 1008.93 1008.27 1007.78 1007.13 1007.26 1007.68 1007.71 1007.27 1007.56 1008.00 1008.26 1008.70 1009.21 1009.09 1009.50 1010.04 1010.48 1010.87 1011.20 1011.39 1011.51 1011.63 1011.65 1011.60 1011.46 1011.40 1011.38 1011.09 1010.97 1010.71 1010.71 1010.47 1010.33 1010.60 1011.02 1011.26 1011.48 1011.75 1012.09 1012.55 1012.77
1008.02 1008.09 1007.80 1008.09 1007.72 1007.37 1007.02 1007.18 1007.57 1007.45 1006.90 1006.92 1007.44 1007.98 1008.69 1008.89 1009.35 1009.83 1010.15 1010.30 1010.61 1011.01 1011.33 1011.45 1011.41 1011.30 1011.26 1011.32 1011.30 1011.01 1010.86 1010.76 1010.55 1010.55 1010.51 1010.61 1010.80 1010.92 1011.14 1011.29 1011.59 1011.97 1012.37 1013.08
1006.75 1007.32 1007.66 1008.05 1007.44 1006.96 1006.85 1007.52 1006.95 1006.28 1006.60 1006.70 1007.26 1007.87 1008.43 1008.94 1009.68 1010.03 1010.29 1010.41 1010.47 1010.61 1010.77 1011.06 1011.14 1010.99 1010.88 1010.92 1010.83 1010.66 1010.52 1010.42 1010.26 1010.38 1010.68 1010.95 1011.11 1011.26 1011.58 1011.84 1012.01 1012.21 1012.50 1013.20
1006.66 1005.97 1006.28 1006.75 1006.25 1006.12 1005.98 1005.61 1005.94 1006.06 1006.13 1006.66 1007.07 1007.64 1008.36 1008.94 1009.36 1009.80 1010.02 1010.27 1010.48 1010.64 1010.76 1010.77 1010.74 1010.78 1010.75 1010.67 1010.68 1010.51 1010.09 1010.05 1010.26 1010.50 1010.88 1011.23 1011.56 1011.75 1011.83 1012.19 1012.44 1012.68 1012.83 1012.75
1006.50 1006.55 1005.94 1006.63 1005.79 1005.90 1005.89 1006.07 1005.99 1006.22 1006.12 1006.49 1007.07 1007.80 1008.48 1008.74 1009.16 1009.53 1009.90 1010.16 1010.52 1010.66 1010.59 1010.74 1010.88 1010.82 1010.57 1010.54 1010.43 1010.17 1009.85 1009.76 1010.30 1010.62 1011.01 1011.56 1012.05 1012.44 1012.33 1012.60 1012.60 1013.01 1013.21 1013.38
1006.41 1006.49 1006.11 1005.76 1005.83 1005.93 1005.87 1005.71 1005.73 1006.22 1006.54 1006.85 1007.41 1007.84 1008.28 1008.72 1009.15 1009.50 1009.69 1009.94 1010.26 1010.49 1010.57 1010.53 1010.56 1010.63 1010.40 1010.37 1010.15 1009.91 1009.72 1009.90 1010.39 1010.90 1011.43 1012.05 1012.57 1012.89 1013.36 1014.00 1014.24 1013.92 1013.89 1013.46
1005.83 1005.49 1005.50 1004.58 1004.45 1004.41 1004.60 1004.92 1005.72 1006.04 1006.35 1006.82 1007.35 1008.09 1008.69 1009.02 1009.30 1009.60 1009.66 1009.95 1010.22 1010.38 1010.51 1010.49 1010.50 1010.52 1010.36 1010.36 1010.13 1010.07 1010.10 1010.28 1010.60 1011.26 1011.94 1012.45 1013.07 1013.44 1013.89 1014.39 1014.80 1014.72 1014.38 1014.05
Wind_Speed
3 4 7 7 7 2 3 2 1 1 6 6 7 4 9 10 13 10 8 15 14 14 8 10 10 10 9 9 9 9 8 7 5 6 4 3 5 4 4 3 5 4 3 2
4 6 7 2 7 8 6 4 0 4 6 3 4 6 8 7 14 13 10 12 14 12 12 12 11 10 10 11 10 9 10 10 8 5 4 3 4 3 2 3 4 5 4 2
7 0 3 8 5 8 8 4 4 2 5 2 2 3 5 7 8 10 7 8 10 13 14 12 12 12 12 12 12 10 10 9 8 6 4 3 4 3 3 4 4 5 5 4
5 3 6 8 11 9 10 6 9 9 4 1 2 2 4 10 12 10 15 13 16 14 14 13 13 13 14 14 10 10 10 10 7 8 6 7 6 4 4 4 4 4 5 5
2 7 9 9 6 10 1 9 9 7 2 3 2 4 5 4 11 17 16 19 17 16 16 16 16 16 15 13 12 11 10 10 9 9 8 7 5 4 3 4 5 4 4 4
6 2 5 3 4 9 13 11 7 3 2 4 3 4 2 5 4 7 15 19 18 17 18 16 16 15 14 13 13 12 11 11 10 10 10 9 7 6 4 5 5 4 4 4
2 2 1 9 11 5 4 6 3 3 3 4 2 4 4 3 3 5 7 16 20 19 18 17 16 16 14 15 14 13 13 12 12 12 12 11 10 9 8 7 5 5 5 5
3 6 4 4 2 5 6 3 3 5 4 0 1 4 2 3 2 3 6 11 14 20 19 19 19 19 17 16 16 15 14 13 13 13 13 11 11 8 7 7 5 6 6 5
5 2 2 3 3 3 6 6 3 6 2 3 1 3 6 4 7 8 3 2 8 15 18 19 18 18 18 17 17 17 16 14 14 15 12 12 11 10 8 8 6 5 6 5
2 4 2 4 4 11 3 8 5 2 4 4 2 4 4 4 4 7 9 3 3 7 12 15 16 16 14 15 15 15 15 15 14 14 13 12 12 11 9 7 8 7 7 7
5 2 4 5 1 5 5 5 4 4 3 3 3 2 5 6 2 3 4 5 3 3 6 10 12 13 13 12 13 13 14 14 12 12 13 12 11 11 10 9 8 7 6 7
1 3 2 3 1 1 1 2 5 6 6 1 3 2 3 5 5 3 2 3 3 5 7 9 10 12 13 13 12 14 13 14 14 14 13 13 12 11 12 11 10 9 9 8
9 1 5 4 5 4 1 3 2 5 3 7 6 2 4 6 7 5 4 1 4 5 3 5 6 7 10 10 11 13 13 15 15 13 14 13 13 13 14 13 12 11 10 9
6 4 4 5 1 1 4 3 4 4 5 6 7 3 6 9 9 6 4 3 3 5 6 2 2 2 2 3 6 8 13 7 12 13 13 14 15 15 14 13 13 13 12 10
1 4 2 3 3 3 2 3 6 6 1 7 3 8 10 1 5 7 2 3 1 2 3 3 2 2 1 2 4 6 9 9 13 12 15 16 14 14 14 14 13 13 13 12
2 4 3 4 2 1 3 4 4 5 3 10 5 9 4 4 8 8 6 7 6 3 1 3 2 1 2 2 3 4 8 11 12 15 14 11 12 12 14 14 13 12 13 13
5 8 6 5 1 1 6 9 9 6 4 4 8 2 4 6 7 5 5 5 5 3 1 1 1 1 4 5 5 5 6 6 9 14 15 13 13 13 14 13 13 14 14 13
9 8 2 3 5 8 3 2 5 6 4 8 8 6 1 3 3 2 4 6 8 6 4 4 4 5 5 5 6 7 6 7 9 12 15 14 13 13 12 12 14 14 13 13
3 7 5 5 9 2 2 6 7 8 5 7 5 4 3 1 1 4 4 5 6 6 5 4 4 6 7 7 7 8 8 7 8 11 14 14 12 14 14 14 14 13 12 12
6 5 4 4 5 7 5 9 5 2 8 10 8 7 4 1 3 2 2 4 5 3 3 4 5 7 7 7 8 7 8 9 9 10 10 11 11 13 14 13 13 11 10 10
6 4 10 6 5 3 5 7 10 9 3 7 12 8 7 3 2 3 1 1 2 2 4 4 6 7 9 8 7 7 7 10 9 6 6 7 6 7 6 7 7 9 7 7
10 9 6 4 5 8 11 9 10 6 3 5 10 9 8 4 3 3 5 6 7 6 5 4 5 6 7 7 7 8 7 9 8 9 7 3 3 4 5 6 5 6 8 8
6 5 8 10 6 2 19 10 11 7 5 5 11 8 6 3 3 3 6 8 7 7 6 6 6 7 8 8 8 8 5 7 9 8 4 3 2 2 2 4 5 5 7 9
3 3 4 5 8 7 14 8 7 9 7 7 5 8 7 4 2 4 5 5 7 7 7 5 5 7 8 8 7 6 6 6 7 7 6 5 5 4 5 4 1 5 6 7
2 6 5 3 1 4 6 14 9 8 5 7 7 7 6 4 3 4 5 5 6 6 5 6 6 7 8 8 7 4 3 4 7 7 7 6 5 6 7 8 5 4 4 2
6 6 6 6 10 8 8 15 11 11 11 10 10 7 4 3 3 4 5 5 5 5 4 5 7 8 7 7 3 3 5 6 9 8 5 5 5 5 5 5 7 20 15 20
Wind_Direction
55 200 204 212 217 84 68 93 90 155 155 188 214 221 197 194 210 197 204 211 213 224 216 233 223 213 206 193 193 201 187 184 176 173 171 193 192 185 188 190 183 170 160 163
182 232 229 189 224 236 283 318 60 106 152 219 176 235 205 200 209 204 179 210 217 235 232 231 228 215 215 201 188 195 195 184 194 203 188 191 179 181 177 170 181 188 189 170
222 232 177 196 215 226 236 245 175 107 154 209 230 227 206 203 228 221 206 193 217 226 229 228 222 222 214 213 192 198 188 186 189 202 184 149 138 127 159 174 169 177 187 173
251 183 187 199 229 218 270 161 147 135 183 71 272 350 227 215 230 219 223 214 218 217 224 223 217 218 214 216 202 195 192 189 185 195 210 206 180 172 190 178 158 155 174 173
113 180 180 203 216 187 313 165 135 130 154 232 83 279 133 204 236 226 219 223 224 225 219 212 218 219 219 205 204 202 196 194 191 197 215 222 214 201 179 201 172 147 163 176
262 267 202 142 77 169 136 110 88 88 338 273 33 306 166 184 217 240 219 227 224 218 223 224 216 215 216 209 208 200 201 198 199 197 208 221 231 207 191 193 195 182 185 184
231 184 116 131 101 137 164 173 133 205 220 314 21 246 300 250 226 261 238 227 225 218 215 216 218 206 210 209 204 205 201 201 199 201 210 211 227 221 205 203 204 193 198 199
201 162 188 154 182 186 186 257 223 246 235 350 179 242 80 308 294 320 269 247 230 219 215 212 213 210 210 211 210 205 200 203 198 203 210 212 221 225 225 211 216 218 222 207
181 118 147 11 114 186 144 208 50 116 108 247 2 270 247 233 258 291 336 224 211 217 220 219 218 214 207 211 209 204 203 204 193 202 208 211 213 218 217 215 211 219 223 232
179 139 80 120 120 55 237 126 178 212 195 259 201 282 280 270 265 257 276 351 336 253 236 225 219 222 220 212 211 204 204 210 202 205 209 208 212 214 220 212 220 215 221 222
167 257 116 183 37 159 151 170 71 101 319 233 261 257 218 237 193 287 282 300 312 316 259 238 230 216 219 212 214 211 203 205 208 208 213 215 212 219 218 220 218 231 226 215
123 106 105 74 26 271 178 145 185 236 182 308 311 267 179 212 190 212 193 251 314 333 293 247 227 213 205 210 206 212 214 210 207 209 210 215 219 220 223 224 221 212 225 226
173 139 137 151 173 165 212 122 121 112 147 187 225 229 167 200 203 220 228 244 344 351 316 183 213 206 196 199 212 217 214 217 217 211 210 214 219 224 227 227 228 227 221 228
121 121 204 226 140 67 166 158 167 244 206 166 224 242 205 208 209 200 204 161 3 8 4 35 197 156 157 192 195 226 233 231 225 222 219 218 215 220 227 226 225 225 223 222
220 140 158 110 120 159 157 177 194 231 193 233 237 225 263 220 197 176 192 181 135 57 58 39 46 253 160 177 203 205 229 213 222 214 216 217 215 213 218 220 219 227 223 220
30 121 136 158 170 198 208 247 242 233 218 246 259 270 300 88 126 133 153 176 192 226 210 162 145 149 192 214 244 236 240 235 217 223 229 224 226 218 219 216 210 217 227 222
139 142 169 191 186 217 247 226 222 230 217 247 220 257 339 119 132 149 178 199 205 207 206 234 240 223 290 292 283 268 265 259 235 234 236 231 217 215 218 220 218 209 217 219
140 128 163 141 162 216 55 294 237 231 236 224 268 280 244 56 86 147 206 179 177 191 245 285 298 309 325 309 287 277 257 252 251 245 237 238 232 226 219 219 222 217 216 215
155 139 124 177 207 354 236 197 184 202 212 200 208 178 192 104 5 129 101 199 216 222 228 256 283 300 305 298 292 285 274 252 246 241 239 231 219 222 215 217 222 222 211 214
89 88 192 160 199 216 221 186 166 122 238 187 195 196 185 171 274 44 132 122 145 173 203 259 288 292 291 299 295 294 275 248 244 240 235 229 220 214 216 216 218 219 216 215
151 137 207 176 217 249 245 150 157 199 206 179 192 191 170 204 20 66 112 313 307 198 201 243 274 289 298 304 296 288 262 237 231 230 183 173 157 174 183 188 186 191 178 129
162 164 180 146 210 246 154 135 202 198 163 208 197 182 195 206 145 222 242 261 256 261 281 265 269 291 298 298 295 281 247 244 208 186 166 172 178 180 172 161 151 139 134 136
187 200 170 202 202 103 180 184 198 182 181 183 190 182 194 213 262 263 260 241 239 254 259 278 294 304 299 305 290 263 246 224 217 185 170 136 136 213 196 172 172 163 162 140
183 189 147 164 184 201 203 214 209 202 204 173 176 154 168 212 239 268 264 244 230 237 263 280 287 285 292 311 299 249 270 217 173 155 125 109 101 76 49 45 154 168 166 159
105 155 156 236 155 160 218 217 207 199 173 146 155 157 169 187 220 262 270 260 240 239 258 288 296 294 301 319 290 253 200 154 125 107 105 106 95 91 86 62 23 29 18 186
191 161 194 213 185 178 196 204 191 181 178 171 162 154 154 194 235 255 278 278 256 243 252 282 286 287 300 311 256 147 118 126 118 109 103 104 104 95 98 103 87 49 59 61